Location: Gleizolles
(44.4833°N, 6.7667°E)
Time: 22:02:37
(UTC+00:00)

A-11 Canister half - Pass Details

Date: 28 June 2024
Orbit: 1524 x 1684 km, 47.3° (Epoch: 18 July)

Event Time Altitude Azimuth Distance (km) Brightness Sun altitude
Rises 17:42:39 0° 293° (WNW) 4,681 13.4 15.0°
Reaches altitude 10° 17:46:02 10° 285° (WNW) 3,692 14.0 14.4°
Maximum altitude 17:53:59 34° 225° (SW) 2,328 10.4 13.1°
Drops below altitude 10° 18:02:01 10° 166° (SSE) 3,715 10.7 11.7°
Sets 18:05:28 0° 157° (SSE) 4,713 11.1 11.2°
